Theta_e
313 313 313 313 313 312 312 311 311 310 309 306 303 303 297 296 295 304 306 307 304 300 293 297 296 293 294 297 296 297 294 293 294 294 295 293 295 293 292 290 290 291 290 290 289 290 288 290 288 291 291 291 293 296 296 296 295 296 295 298 297 300 292 289 291 295 297 299 301 302 302 301 299 299 299 298 296 296 295 296 298 297 300 297 298 295 300
313 313 313 313 313 312 312 311 311 310 309 307 305 299 296 295 296 299 306 307 306 298 289 290 292 294 295 295 293 296 295 294 293 292 294 293 292 291 291 292 294 290 293 291 288 291 285 291 290 289 292 290 297 296 296 296 293 294 295 292 297 290 293 290 288 290 293 296 299 298 299 300 296 295 297 296 297 297 297 298 300 295 298 299 297 292 299
312 313 313 312 312 312 311 311 311 311 310 309 305 297 297 296 299 299 302 304 302 293 293 292 291 291 291 292 291 292 293 295 295 294 293 295 294 292 291 292 293 292 293 291 291 291 289 287 292 291 292 292 297 296 295 297 294 297 300 299 298 290 291 290 285 285 284 284 286 290 293 293 295 295 295 296 295 295 296 296 299 292 299 301 297 298 305
313 313 313 312 312 312 311 311 311 311 310 308 306 299 298 294 292 296 298 299 298 296 297 294 292 291 291 291 291 292 291 294 296 296 293 296 295 294 294 294 294 292 292 290 289 289 292 289 288 290 289 292 294 296 296 295 295 298 300 299 296 291 293 292 290 287 288 291 289 290 293 293 291 293 294 294 295 296 296 297 295 294 300 297 301 303 303
312 312 313 312 312 311 311 311 311 311 309 308 306 301 297 297 292 291 290 296 296 293 295 293 293 290 292 289 291 289 291 292 294 297 292 295 294 293 294 293 291 291 291 289 288 289 289 291 290 289 289 291 292 296 296 296 297 299 297 298 295 292 288 290 291 291 291 292 291 292 292 290 292 292 292 295 294 295 294 293 295 300 296 293 302 305 301
313 313 313 312 312 312 312 311 311 310 309 307 305 297 298 292 293 295 295 290 288 290 291 293 292 292 293 292 293 290 290 291 289 294 295 295 296 291 293 294 293 292 290 290 287 288 288 289 287 290 291 290 292 292 294 293 297 298 295 298 293 289 286 290 290 289 291 292 292 293 292 292 292 292 293 293 295 295 293 294 296 297 295 295 303 307 305
313 313 313 313 312 312 312 312 311 310 309 307 304 297 298 297 295 295 298 291 292 292 292 293 292 291 293 293 292 290 289 289 291 291 292 293 292 294 288 290 292 292 293 291 288 289 285 286 290 289 289 289 290 289 291 294 297 296 294 295 296 292 287 289 290 289 290 291 291 293 292 292 292 293 294 294 294 295 295 296 298 298 298 300 302 305 304
313 313 313 313 312 312 313 312 311 311 308 309 303 299 296 294 294 293 297 296 294 294 293 292 291 290 294 290 290 290 290 289 291 293 292 289 290 295 291 291 293 293 293 292 289 290 290 289 287 291 289 289 291 289 290 290 295 296 292 293 295 290 287 293 290 289 289 291 293 293 292 292 291 293 294 295 295 296 297 299 305 308 306 302 301 302 303
313 313 313 313 312 312 312 312 311 310 309 304 301 300 301 300 301 300 294 292 294 295 293 291 290 290 291 290 290 290 290 290 292 292 295 292 290 293 291 293 293 294 293 292 292 294 293 293 292 294 293 288 293 289 290 294 290 293 292 292 292 291 288 291 289 286 287 291 291 292 292 292 292 292 294 295 295 297 303 304 309 308 306 306 303 302 304
312 312 312 313 312 312 312 312 312 310 309 306 304 298 306 304 304 302 298 292 295 292 293 292 290 287 291 291 291 289 290 292 293 290 294 295 296 295 294 294 293 292 292 291 293 295 296 296 297 297 297 297 296 296 295 294 292 291 291 294 290 291 289 287 287 284 285 290 291 290 291 292 290 292 295 297 299 304 306 308 310 310 310 308 305 304 314
312 313 313 313 313 313 313 313 313 311 311 305 302 301 303 300 298 299 298 291 293 293 292 291 290 292 292 292 291 292 291 292 293 289 290 295 295 297 296 294 292 291 291 294 299 300 299 299 299 300 298 297 296 296 296 295 295 294 292 291 292 292 290 287 289 283 286 289 290 292 289 284 287 303 304 303 302 304 304 306 306 308 309 307 310 311 314
313 313 313 313 313 313 313 313 313 310 310 310 309 304 306 307 304 300 295 289 290 294 292 290 291 292 291 292 292 291 291 292 292 295 291 293 295 297 296 296 295 290 297 301 302 301 301 301 299 299 297 296 295 295 295 293 294 296 296 292 291 290 290 288 290 285 284 289 290 287 283 286 300 302 305 306 306 306 306 307 308 307 308 308 309 310 311
313 313 313 313 313 313 313 313 313 311 310 311 309 303 307 309 303 299 296 292 289 292 291 292 294 293 293 293 292 292 294 294 295 295 295 294 294 296 297 295 294 296 302 300 300 299 294 292 293 293 293 294 294 294 293 293 293 295 295 295 292 289 289 289 288 288 289 286 286 279 284 297 298 303 304 306 307 306 308 307 307 307 307 307 306 308 311
313 313 313 313 313 313 313 314 313 313 311 310 308 307 308 308 301 298 296 292 291 294 294 293 294 292 292 292 293 294 295 294 295 296 293 296 295 295 297 299 299 302 302 301 298 296 292 292 287 288 289 291 291 289 291 293 294 294 293 294 294 292 291 290 286 289 282 285 286 287 295 294 302 302 301 301 300 302 304 302 304 306 308 305 305 307 310
313 313 313 313 313 314 314 314 314 314 313 309 311 309 308 308 307 302 301 297 290 293 294 288 292 292 292 293 294 292 293 293 293 294 296 298 296 298 298 300 303 302 303 298 295 295 291 289 285 284 286 285 281 283 290 288 295 296 296 295 295 294 289 291 286 285 288 284 283 285 285 284 294 301 304 305 307 307 307 305 302 305 307 306 305 305 308
313 313 313 313 314 314 314 314 314 313 312 308 311 309 309 310 309 306 302 297 293 287 293 296 296 294 292 292 293 291 291 292 292 293 293 295 296 299 301 303 303 303 300 298 296 293 290 286 283 283 281 283 286 284 284 288 288 295 296 296 294 294 294 292 287 285 287 284 281 282 282 287 299 300 303 306 308 309 310 305 300 304 306 305 305 305 306
313 313 313 314 314 314 314 314 314 312 312 309 310 309 307 312 308 304 300 298 296 291 298 298 297 296 293 292 294 292 293 291 293 289 289 291 294 297 299 302 304 301 299 295 294 291 288 286 287 285 286 287 284 283 287 286 283 285 293 293 291 290 290 290 286 285 285 285 283 282 289 287 298 301 302 306 310 309 307 295 296 301 307 305 305 304 305
313 313 314 314 314 314 314 314 313 314 312 311 311 309 308 312 311 309 303 299 294 294 299 300 297 294 292 294 292 296 298 296 295 296 293 295 295 296 297 299 296 300 300 292 293 289 287 286 283 283 282 289 289 289 281 285 282 283 283 285 285 286 287 288 283 284 284 285 284 287 290 296 304 303 307 309 310 307 297 292 297 306 305 305 306 306 307
313 313 313 314 314 314 314 314 313 313 313 309 312 310 309 312 312 310 305 300 297 293 300 302 302 298 300 301 297 298 298 298 296 291 290 291 295 299 299 299 298 292 297 291 292 288 286 286 289 287 284 287 290 283 289 284 283 286 285 283 284 286 287 287 287 283 282 284 283 285 291 298 305 307 310 309 304 295 295 300 307 306 304 306 307 307 308
312 313 313 313 313 314 314 314 313 313 313 309 310 307 310 312 313 311 304 299 300 296 300 301 301 298 301 298 296 295 297 297 297 293 291 288 298 299 295 291 296 296 293 294 287 290 286 284 286 289 286 286 288 291 287 287 290 285 285 287 284 286 284 283 282 286 286 285 284 283 281 296 307 307 306 306 299 297 302 305 307 307 305 306 307 308 309
312 313 313 313 313 314 314 313 313 313 313 312 308 308 306 312 312 312 311 306 300 296 299 304 304 302 302 301 301 301 299 295 297 294 297 296 300 296 285 286 291 292 288 290 285 286 288 286 288 288 291 288 289 289 283 284 286 292 288 285 285 292 285 285 286 291 282 283 282 284 295 301 305 303 296 300 302 306 306 305 303 306 306 306 307 308 311
312 313 313 313 313 313 313 313 313 313 313 312 309 309 305 309 312 312 311 309 302 299 301 306 307 305 307 307 306 306 304 303 303 303 298 295 300 297 296 297 295 294 295 296 291 290 292 291 292 288 286 288 293 286 288 283 282 288 294 290 282 291 287 289 285 293 289 288 292 297 301 306 304 304 302 303 305 307 307 305 305 304 306 310 309 309 311
312 312 313 313 313 313 313 313 313 314 313 313 312 309 305 308 310 313 311 303 306 306 307 306 307 307 309 309 310 310 310 310 308 307 305 298 296 299 297 296 294 300 300 300 292 291 291 290 287 291 288 290 288 287 288 287 285 289 285 292 289 294 295 296 292 289 296 297 298 300 301 304 304 304 305 305 304 306 306 305 304 305 308 310 308 309 310
312 312 313 313 313 313 313 313 313 314 313 313 312 309 307 308 310 311 308 306 301 298 304 305 302 302 303 304 308 312 311 309 309 308 310 306 295 296 302 302 303 300 299 300 302 295 293 292 291 293 286 291 291 286 284 284 287 291 288 288 291 293 296 293 288 293 290 287 297 297 296 298 304 303 305 307 307 306 307 306 306 306 309 310 308 308 308
312 312 312 312 313 313 312 312 312 312 313 313 313 313 312 309 311 310 304 298 299 297 294 299 304 305 307 310 311 309 311 313 313 310 309 307 304 298 297 301 305 300 297 300 303 298 296 288 290 289 285 292 292 285 293 287 287 293 286 288 289 289 298 292 291 290 288 291 295 296 298 299 304 302 300 304 307 308 308 308 309 307 308 309 309 309 308
312 312 312 312 312 312 312 312 312 312 312 312 312 310 307 307 312 312 308 306 304 300 295 295 301 308 309 308 306 308 311 311 311 310 310 309 308 307 305 306 304 307 304 303 301 294 291 289 289 288 286 288 296 288 288 292 290 294 289 289 294 295 297 287 292 289 293 295 296 297 299 302 302 299 300 301 302 303 304 307 308 307 306 306 309 310 309
312 312 312 312 312 312 312 312 313 312 312 312 312 312 310 310 312 310 306 304 299 295 296 295 301 304 307 305 308 310 312 311 311 310 310 310 309 309 307 305 303 304 302 301 301 298 294 290 288 286 289 289 294 291 292 291 292 290 290 294 297 293 289 293 291 288 288 290 293 296 290 291 299 301 301 301 303 304 303 304 307 306 305 306 307 308 310
312 312 312 312 312 312 312 311 311 312 310 311 312 311 311 309 310 312 312 309 302 296 296 296 298 302 307 303 308 310 312 311 310 310 310 310 309 308 307 306 304 302 302 299 294 293 290 287 286 292 293 293 291 290 296 296 295 292 291 292 295 290 291 291 287 287 288 295 297 298 297 297 298 299 301 302 303 303 302 302 304 307 307 307 307 306 307
312 312 312 312 312 311 311 311 311 311 311 309 310 308 307 309 310 311 311 312 309 302 300 300 303 301 298 302 307 307 311 311 310 310 309 309 309 308 306 306 304 304 303 302 298 296 293 291 295 290 288 296 292 289 291 287 287 286 290 294 295 295 298 296 295 295 296 298 298 299 297 295 298 301 303 302 303 302 301 302 303 306 308 308 308 308 307
312 312 312 312 312 311 311 311 310 311 309 310 307 306 305 308 310 309 310 311 310 306 298 296 295 299 305 304 304 306 308 309 308 308 307 307 307 307 307 306 305 307 304 300 298 292 295 294 295 297 298 301 291 289 287 288 286 289 295 295 296 297 298 299 299 296 295 300 301 301 300 301 302 303 303 303 304 304 302 301 302 304 308 309 308 308 309
312 312 312 312 312 312 311 310 311 311 309 309 307 303 302 301 307 312 310 311 312 307 301 299 295 301 302 306 305 304 306 309 307 306 306 307 308 309 309 309 306 307 302 301 300 298 299 293 295 296 300 299 294 287 286 286 285 288 292 294 296 297 298 298 300 301 300 301 302 303 303 303 304 303 303 303 304 305 303 304 305 307 308 309 309 309 309
312 312 311 311 311 311 311 310 311 311 310 308 307 306 306 307 310 313 311 311 312 305 299 293 295 298 297 302 305 309 308 309 309 309 309 310 307 310 307 308 305 308 304 301 300 300 297 298 297 296 295 298 295 287 287 286 285 285 292 295 297 298 300 299 300 302 302 303 302 300 301 302 304 301 300 305 306 306 305 304 304 304 306 309 311 311 311
312 311 310 311 311 311 311 311 311 311 310 310 310 309 309 308 309 312 312 313 309 303 302 296 292 294 294 300 306 308 310 309 308 307 305 310 306 308 304 308 307 305 307 303 299 296 300 299 299 295 297 298 292 287 285 285 287 293 295 296 297 298 299 300 301 302 304 304 303 298 298 300 302 305 306 306 306 306 306 306 305 305 304 307 310 311 310
311 310 310 311 311 311 311 311 312 310 309 309 308 310 312 310 310 311 314 313 307 304 302 296 295 294 296 306 301 307 312 306 304 304 301 308 308 307 304 304 305 301 304 301 301 301 303 302 297 296 299 294 292 287 285 289 294 294 296 296 297 298 299 299 300 300 303 304 305 305 304 305 306 307 306 306 306 307 308 307 306 304 305 307 308 309 309
310 310 311 311 312 312 312 311 310 308 306 306 307 311 313 310 311 312 313 310 300 298 298 298 297 294 296 300 299 304 311 307 304 305 301 304 310 304 303 300 302 298 299 307 301 300 297 297 300 294 290 295 290 286 287 290 293 294 295 295 297 298 298 296 297 300 302 304 304 305 305 305 304 303 303 305 305 306 306 306 307 305 303 304 307 307 309
311 312 312 312 312 312 311 310 309 306 306 307 309 313 314 314 313 314 315 313 307 299 297 297 297 295 296 293 296 304 312 305 308 305 302 302 303 307 306 303 297 300 305 302 296 300 297 301 299 289 294 288 286 288 291 294 294 295 295 295 296 297 296 296 297 299 301 303 303 304 305 305 304 302 303 303 304 304 305 305 305 304 303 302 303 305 307
312 312 312 312 311 311 308 307 310 309 309 311 313 315 315 315 315 313 312 309 310 309 300 298 296 299 300 300 303 307 308 299 307 304 303 302 300 304 303 301 297 301 301 299 298 296 299 307 296 289 289 287 289 295 297 298 297 296 295 296 298 299 298 298 300 300 299 300 301 301 302 303 304 304 303 302 302 302 302 302 303 303 302 302 304 304 305
311 311 313 311 311 310 310 310 310 313 315 314 314 310 308 308 302 304 304 301 305 306 301 300 297 301 303 300 299 309 307 303 306 302 303 306 301 301 305 302 300 302 291 295 297 303 300 298 291 289 289 296 298 299 299 300 301 300 299 299 299 299 299 300 299 298 297 296 296 298 300 300 301 303 304 303 303 301 302 303 304 304 304 303 304 305 306
310 311 310 309 311 310 309 310 314 315 314 313 311 306 304 304 302 300 301 300 301 299 303 299 299 302 301 301 305 311 306 303 301 301 299 305 302 298 303 296 301 300 291 291 296 305 292 293 293 291 288 295 296 297 301 301 301 302 302 302 301 300 300 300 300 298 297 296 297 299 299 298 299 301 303 304 305 306 306 306 306 306 306 306 306 307 307
312 311 309 309 310 310 312 313 314 313 311 306 306 305 303 304 300 296 303 296 297 302 301 299 305 303 305 303 302 304 312 306 299 300 303 303 307 299 301 300 299 296 287 287 293 303 291 286 288 288 287 293 293 298 301 302 300 301 303 302 302 302 301 300 300 300 300 300 301 301 301 301 302 302 302 303 303 303 304 306 307 309 310 311 311 312 310
309 310 310 311 310 309 311 313 313 310 306 304 304 303 301 294 304 303 302 299 298 302 306 305 307 305 307 306 305 301 311 312 309 308 304 300 307 305 297 293 302 292 286 287 298 299 294 289 288 286 289 296 298 300 301 301 301 302 303 304 304 302 302 301 301 300 300 299 300 301 301 302 302 302 302 303 303 303 304 304 305 305 307 308 308 309 310
312 314 313 313 311 311 311 309 307 305 306 306 298 291 294 298 302 303 301 293 296 303 307 306 303 303 303 308 307 309 309 313 310 307 304 297 305 301 295 296 297 291 287 294 301 296 291 285 285 286 294 298 300 301 300 300 301 302 304 305 304 303 302 301 300 300 300 299 300 300 301 302 302 301 302 302 302 303 304 304 304 304 305 306 308 308 308
308 311 313 312 310 309 308 299 306 304 290 289 287 288 294 290 294 292 296 303 308 304 304 310 308 311 311 311 308 309 308 311 306 303 301 297 304 301 296 293 292 287 292 300 296 290 286 284 284 289 297 299 301 301 302 302 302 303 304 305 305 304 302 302 301 300 301 300 300 300 301 302 302 302 303 303 302 302 303 304 304 304 304 305 305 306 307
313 313 311 309 304 308 306 290 301 298 291 289 289 287 291 290 294 296 293 296 301 302 305 300 300 301 298 308 307 306 308 307 308 305 304 304 298 294 294 289 291 296 300 294 292 286 286 289 291 295 299 299 300 301 302 302 303 304 304 305 305 304 303 303 302 301 301 301 301 301 301 302 302 303 303 303 303 301 301 302 305 306 305 305 304 304 306
311 303 297 297 293 297 293 287 297 291 288 291 294 294 294 290 293 296 294 301 301 298 303 304 303 301 300 306 310 308 306 303 308 301 295 298 294 295 292 290 296 297 291 288 289 289 288 287 294 297 297 299 299 301 302 303 304 304 304 304 303 303 303 302 302 302 302 301 301 300 300 301 301 302 302 303 303 303 302 301 302 304 304 305 304 304 305
308 299 293 290 287 291 292 289 288 289 296 298 296 298 297 297 297 297 302 302 300 301 300 300 301 301 301 307 301 299 302 302 298 298 298 297 292 289 296 299 297 290 289 288 285 284 285 290 294 296 298 300 300 301 301 303 305 305 304 302 303 303 303 303 302 302 302 302 302 301 300 301 301 301 301 302 302 302 302 302 303 303 304 304 304 304 305
302 302 294 292 288 291 297 291 294 298 298 300 301 301 299 300 301 300 301 301 300 302 302 304 303 302 301 300 302 301 301 301 296 298 299 293 291 294 300 293 287 288 284 283 284 285 289 293 296 297 299 300 300 301 301 302 304 305 304 304 304 303 304 303 303 302 302 303 303 302 301 301 301 302 302 301 301 302 303 303 303 303 303 303 304 305 305
296 298 298 290 287 292 293 298 300 300 302 301 302 301 300 300 300 301 304 303 303 302 301 303 301 302 302 304 303 297 298 298 295 295 298 295 297 292 288 289 288 289 289 285 286 291 293 296 297 299 300 301 300 300 300 302 303 304 304 303 303 303 302 303 303 303 304 303 303 302 302 302 302 302 301 301 301 301 302 302 302 303 303 303 304 304 304
307 295 295 292 298 297 299 300 299 298 301 302 299 299 301 301 301 302 304 305 303 302 302 301 301 301 297 300 298 297 294 298 291 289 295 293 288 284 285 282 283 283 290 292 292 295 296 299 300 301 301 299 300 300 300 301 302 303 303 303 302 302 302 302 302 303 304 304 304 303 302 302 302 302 301 301 300 300 302 303 302 302 302 302 303 303 303
297 296 299 295 298 299 299 299 299 298 301 301 302 301 300 300 301 303 305 304 304 302 303 303 303 298 296 297 291 294 293 297 294 292 291 288 289 289 287 282 284 284 288 295 296 298 300 301 301 299 299 299 300 300 300 300 302 303 303 302 302 302 302 301 301 301 302 303 304 303 303 303 302 301 301 301 302 303 302 302 302 301 302 302 302 302 303
300 296 299 304 300 299 299 297 297 296 297 299 300 301 302 300 300 302 305 303 303 301 300 295 295 294 292 291 290 287 289 298 294 290 289 288 293 290 285 283 287 292 294 298 300 301 302 302 301 299 298 299 300 300 300 301 302 302 301 301 301 301 301 301 301 301 301 301 302 303 303 303 303 303 303 303 302 302 301 301 302 302 301 302 302 302 301
295 296 301 302 304 302 303 303 302 300 300 302 302 304 301 301 304 304 304 305 304 297 294 298 295 292 288 287 290 295 297 293 289 290 288 291 295 288 288 290 292 296 297 299 300 301 301 302 302 300 299 299 299 300 300 302 302 301 301 300 300 300 300 300 300 301 301 301 302 302 303 303 303 304 304 303 301 301 299 300 301 301 302 302 302 303 302
Wind_Speed
18 16 17 18 17 16 17 18 19 18 17 11 11 6 3 4 2 6 11 16 8 5 6 2 4 4 3 4 1 2 3 4 4 5 7 3 4 3 5 4 1 2 2 0 1 1 2 2 1 1 1 2 1 2 4 8 7 5 3 6 1 9 3 4 7 7 10 10 3 5 3 7 7 4 3 4 3 4 4 4 6 5 8 10 10 13 6
17 16 16 17 15 14 15 16 17 16 13 9 10 4 3 2 3 5 7 17 4 7 3 3 4 3 3 4 4 4 5 6 7 6 7 5 4 3 3 2 5 2 4 2 1 2 3 3 1 2 2 3 2 2 2 6 5 5 5 5 7 4 3 3 4 3 4 7 5 4 5 5 4 1 2 3 4 5 7 7 5 4 7 11 9 15 5
16 15 15 15 14 13 14 14 15 14 12 9 7 5 3 4 3 3 5 12 11 6 2 2 2 4 4 4 7 5 3 6 6 4 6 5 4 1 3 4 4 3 4 2 1 3 3 1 2 3 1 2 1 2 1 3 5 4 7 7 6 4 4 2 3 7 11 12 11 7 2 3 4 1 1 3 6 9 6 4 3 6 5 10 11 10 3
16 15 15 14 13 13 13 13 13 13 10 8 6 3 3 4 3 5 4 7 8 8 5 5 3 3 4 4 4 4 3 3 6 5 5 8 4 4 3 4 2 7 6 2 2 1 3 3 1 2 2 2 1 3 4 3 6 5 7 8 5 3 3 5 6 6 7 5 4 1 4 5 3 5 8 7 3 3 2 2 3 7 4 7 9 6 7
16 16 14 13 12 12 12 13 12 13 11 6 4 2 2 1 3 4 6 3 6 5 6 6 5 3 2 2 2 5 6 4 1 8 2 7 5 3 7 7 4 5 4 3 3 2 4 2 5 4 4 2 3 3 5 7 7 4 4 6 4 2 4 8 9 11 12 12 8 6 7 9 9 10 11 9 7 3 4 4 5 7 7 11 3 5 11
16 16 15 13 11 12 12 12 11 11 11 6 1 2 3 2 1 1 1 2 5 6 6 8 5 3 1 3 1 4 5 6 4 3 4 4 5 1 2 6 7 4 5 4 3 2 5 3 3 1 3 4 3 7 4 5 5 4 3 4 3 4 5 5 7 12 12 11 10 7 7 9 9 10 12 13 10 7 7 10 11 10 8 7 11 12 5
16 15 15 14 11 10 12 11 10 10 11 5 4 1 2 2 2 1 1 1 2 2 4 6 5 3 0 2 4 4 5 4 3 3 3 3 3 6 1 4 7 5 3 2 2 2 3 1 1 3 5 5 5 5 6 5 3 3 3 3 2 3 5 7 7 12 13 12 10 8 10 10 11 11 12 12 12 12 11 12 13 13 13 9 13 15 20
15 14 14 14 11 10 10 11 9 8 12 6 3 5 1 4 3 2 2 1 0 1 3 3 4 3 5 1 4 3 4 4 5 1 2 0 2 2 2 5 6 7 2 2 4 2 3 4 5 3 4 8 4 5 6 6 1 4 4 4 1 2 2 6 8 9 10 9 8 10 10 10 12 12 12 13 13 12 11 10 11 10 11 15 17 15 17
14 14 13 13 12 9 9 10 8 7 7 4 5 4 4 1 2 2 2 3 3 2 4 4 4 1 3 2 3 3 3 5 6 4 2 2 1 4 5 6 8 4 3 4 7 5 5 7 9 10 9 9 4 3 1 1 3 3 5 3 2 1 6 5 6 8 9 4 7 7 6 8 12 14 14 13 10 9 4 3 4 6 6 6 7 11 9
14 13 13 12 11 9 8 9 7 3 4 2 2 5 1 1 1 2 2 3 3 4 3 2 1 2 3 3 3 3 3 4 7 4 1 1 2 4 4 7 7 6 5 6 3 5 8 11 12 10 10 11 12 11 12 11 10 8 8 6 7 4 4 4 4 6 10 6 2 4 5 7 12 14 15 13 10 5 1 2 2 6 5 6 8 5 9
13 13 12 11 11 10 10 8 7 1 2 3 2 1 2 2 2 0 1 2 3 3 5 3 5 3 2 2 4 2 4 4 4 4 2 4 2 1 4 7 6 5 7 4 7 9 12 12 13 11 12 14 15 12 13 15 13 12 9 7 6 6 5 5 3 4 6 3 6 5 6 11 9 6 8 1 7 5 4 3 4 8 7 4 6 9 11
13 12 12 11 11 10 9 7 5 1 2 1 1 2 2 1 2 1 1 4 3 3 4 4 5 4 5 3 3 5 6 5 4 3 8 8 11 10 7 6 4 6 1 5 10 11 12 12 11 11 12 13 14 15 15 15 13 12 11 11 8 7 6 6 4 6 6 6 8 7 12 10 5 1 5 6 3 2 3 7 9 11 12 14 13 13 14
12 12 11 10 11 11 8 7 5 3 3 2 2 1 1 0 0 1 0 1 2 5 6 6 4 6 6 6 5 4 5 6 7 7 7 9 9 8 4 4 5 6 7 11 12 9 8 7 8 8 9 8 10 12 13 14 14 13 12 12 11 10 8 6 7 6 7 7 6 6 7 2 4 2 3 9 3 7 5 9 11 13 12 12 12 14 14
12 12 11 11 11 12 10 7 6 5 3 4 2 3 2 2 2 1 1 0 3 2 3 7 3 1 1 1 3 6 6 6 5 4 4 3 7 10 8 5 6 7 9 8 7 4 5 2 5 4 3 3 3 3 4 6 9 11 13 14 13 12 8 7 7 6 7 6 7 10 8 3 7 6 3 6 5 7 7 3 6 13 12 14 12 14 16
12 12 11 12 11 11 9 7 6 5 3 5 3 3 3 3 2 2 0 0 3 5 3 3 1 3 3 4 3 7 6 5 6 3 4 6 7 5 6 7 8 9 7 5 3 1 2 3 4 6 3 2 4 2 2 3 2 5 6 10 13 12 12 8 8 7 10 9 7 8 5 5 5 5 4 3 5 6 7 4 2 10 13 13 13 14 16
11 11 11 11 11 9 8 6 5 3 3 5 3 2 3 3 3 1 1 1 0 3 1 6 3 2 3 3 4 5 6 7 6 8 7 3 4 5 5 6 7 6 3 2 1 2 1 3 5 5 4 5 4 5 2 4 4 2 1 6 10 14 13 9 10 7 7 9 10 7 5 2 6 3 6 6 7 6 7 5 4 6 11 14 14 14 16
11 11 11 11 10 9 8 6 5 1 1 6 2 2 3 4 4 3 2 1 2 5 1 1 2 3 2 5 3 4 3 3 4 6 6 5 6 8 9 6 4 0 2 3 1 2 3 3 3 3 4 2 4 5 8 2 5 3 4 1 6 12 13 11 11 13 10 7 9 9 5 1 1 6 9 11 9 7 6 8 4 8 10 12 13 14 16
10 11 11 10 9 9 8 7 5 3 2 6 4 3 2 4 5 4 2 2 2 4 4 5 5 3 4 4 4 3 2 3 4 4 6 8 9 7 5 6 5 2 2 4 2 2 2 3 4 4 4 1 3 5 3 4 5 4 5 4 4 10 12 13 14 11 10 11 10 9 8 3 7 8 11 10 7 4 8 5 4 6 9 11 11 13 13
11 10 10 9 10 9 9 8 5 4 2 4 3 2 4 4 5 5 1 2 3 5 2 3 6 7 4 2 5 3 3 3 4 5 6 7 4 2 5 3 1 4 3 3 2 2 3 2 1 2 3 1 2 3 4 5 3 2 3 6 5 12 11 9 10 10 9 8 10 10 8 3 9 9 7 7 4 5 3 4 3 7 8 9 10 12 12
10 9 9 9 9 9 9 7 5 4 1 6 3 3 2 2 6 8 5 3 3 7 8 8 6 9 5 5 6 6 5 5 5 5 3 6 1 6 7 2 1 2 2 1 2 1 2 2 2 1 2 4 2 2 5 5 2 3 3 6 8 9 12 10 11 7 5 6 9 7 8 3 12 8 2 9 4 3 5 3 5 5 6 9 11 11 13
9 9 9 9 9 9 8 6 4 1 2 5 4 2 2 2 4 7 6 4 2 7 6 0 3 7 6 9 11 11 9 9 6 5 5 6 1 2 3 1 2 3 2 1 1 1 2 1 1 2 2 4 3 3 5 6 4 6 6 3 3 6 6 5 6 4 6 8 10 5 3 6 8 7 4 3 4 5 5 5 5 5 6 7 9 10 11
9 9 9 9 9 9 7 5 2 0 1 5 5 1 2 1 2 4 5 4 4 6 5 6 6 10 11 11 11 11 12 13 13 8 7 7 3 4 3 4 6 1 2 1 2 2 2 1 0 3 4 4 2 4 5 6 6 1 5 5 3 6 2 4 1 0 4 5 5 3 3 3 4 5 4 3 4 5 6 5 4 6 6 7 5 10 12
9 9 9 9 9 7 5 4 2 3 4 5 6 3 3 2 2 3 4 3 4 6 7 10 9 10 9 9 12 12 11 10 9 6 7 6 5 4 7 6 5 2 2 2 2 2 2 2 4 2 5 5 3 6 5 5 4 2 5 1 4 5 4 2 3 3 6 12 13 13 3 2 5 3 2 4 4 4 5 5 4 6 7 6 7 9 10
10 10 9 8 8 6 4 3 2 2 4 5 6 3 3 3 2 1 2 2 2 6 5 3 4 3 4 6 6 3 5 6 9 9 6 7 6 3 2 3 1 1 2 2 2 1 1 2 4 1 6 2 1 5 6 3 3 3 5 4 1 6 4 4 2 3 4 3 5 2 7 6 3 4 1 0 2 3 3 4 4 5 7 7 9 10 12
11 10 9 7 6 5 4 3 1 2 4 5 6 5 2 2 3 3 2 2 1 2 3 4 3 3 3 5 6 3 4 5 5 6 7 8 10 8 5 3 1 3 3 2 2 2 1 3 2 2 4 2 2 5 2 5 1 4 5 3 5 0 2 7 3 6 4 4 11 11 8 5 3 5 4 5 4 5 3 2 2 3 7 7 8 10 10
10 9 8 7 5 4 4 3 2 3 4 5 6 5 4 3 2 2 2 2 2 2 3 4 1 1 4 5 4 6 8 5 5 7 8 10 11 10 7 4 2 2 1 1 3 4 3 3 3 2 2 1 2 3 3 2 7 6 4 4 3 7 8 3 7 6 7 8 4 8 7 4 6 5 5 5 3 4 8 7 4 4 4 7 8 8 10
10 9 7 6 5 3 3 3 4 5 5 4 5 5 4 2 2 5 3 2 1 1 2 3 4 5 5 7 3 6 5 2 4 4 5 7 8 7 7 7 8 4 3 2 1 2 1 1 1 2 1 3 4 5 5 5 4 5 3 2 7 7 4 7 8 6 5 3 2 8 5 3 4 8 9 6 5 5 7 7 4 3 5 5 7 9 9
9 8 7 5 4 4 3 2 3 3 4 5 4 4 4 5 5 5 3 2 1 0 3 4 5 8 8 4 2 4 4 2 1 3 3 4 4 4 4 4 4 3 2 2 2 3 1 2 2 2 2 4 4 3 4 6 5 4 2 3 7 7 9 8 5 4 7 7 10 10 10 12 13 13 13 10 7 6 9 8 7 6 4 4 7 10 9
9 7 6 5 4 3 4 4 4 6 5 5 3 2 3 6 6 5 5 3 2 2 3 6 7 5 3 4 6 1 3 2 1 1 1 1 3 3 2 2 3 3 2 1 2 2 2 1 1 2 2 4 4 5 6 4 5 5 5 10 12 11 12 12 11 12 14 13 12 11 10 11 11 11 12 11 8 8 12 13 9 9 6 3 5 7 9
9 8 5 3 3 4 4 5 6 6 8 5 3 2 2 2 4 6 6 5 4 2 2 3 3 0 3 3 2 1 0 3 3 3 4 3 3 1 1 1 1 1 1 1 1 4 3 1 1 1 2 4 3 3 3 3 4 4 6 13 14 14 12 10 9 8 10 10 11 11 12 14 14 15 14 13 14 12 12 14 12 10 8 5 6 6 7
9 7 6 5 4 5 6 7 8 9 8 4 2 1 1 1 2 4 7 7 4 2 2 1 4 5 5 1 2 2 1 1 1 1 1 1 1 1 2 1 1 2 2 1 1 1 0 3 4 4 0 2 3 2 2 3 4 4 11 16 14 14 14 13 10 9 10 10 10 10 11 12 12 11 13 13 13 13 13 14 14 11 10 8 8 7 7
9 7 5 5 5 5 6 9 10 10 6 5 3 1 2 2 1 5 7 7 5 3 2 2 2 2 3 3 2 1 2 2 0 0 0 1 1 2 2 1 1 1 1 2 2 1 2 2 1 4 3 3 3 2 2 2 5 8 15 15 13 13 12 12 10 9 8 8 8 10 9 9 8 10 8 6 8 9 11 13 13 10 12 11 7 7 7
9 7 6 4 5 7 8 9 11 9 6 4 9 9 9 6 4 7 7 7 3 1 1 1 1 1 2 2 2 2 2 1 1 1 1 1 1 2 2 1 2 1 2 2 3 2 1 1 1 4 2 2 2 2 1 2 7 12 13 12 11 12 12 12 10 10 8 5 3 5 8 9 10 10 11 13 13 12 11 10 10 8 9 10 8 6 7
9 5 3 6 6 7 9 8 7 5 1 3 3 1 1 5 7 8 8 4 1 1 2 1 1 2 3 1 1 2 3 2 0 2 1 1 2 1 1 1 2 1 3 3 1 2 0 0 3 3 1 2 2 1 3 7 12 12 12 12 14 14 12 12 14 14 12 11 9 6 8 9 10 10 10 11 13 12 12 10 8 7 7 8 8 7 6
4 4 8 10 10 10 11 11 6 3 2 1 2 1 2 7 9 11 7 2 2 1 2 1 1 3 4 1 2 1 3 2 2 2 2 1 0 1 1 2 0 0 2 1 1 2 4 4 4 4 7 4 1 4 4 10 15 15 14 14 15 14 13 14 16 17 13 14 13 12 11 10 9 8 9 10 10 11 11 11 9 7 7 6 4 5 5
6 10 12 12 12 10 6 4 2 2 1 1 1 3 6 8 9 6 1 0 1 1 1 1 1 3 2 2 3 1 3 3 2 3 1 1 1 1 1 2 2 1 1 0 3 2 2 4 3 6 6 3 6 5 8 11 14 16 17 17 16 16 15 16 17 18 15 16 18 16 15 12 10 9 8 8 8 8 9 10 11 8 7 7 8 6 3
9 13 13 10 5 2 1 1 1 1 2 2 5 8 10 8 3 1 0 1 1 0 2 2 3 3 4 3 3 2 1 3 0 1 4 3 1 2 2 2 2 2 1 1 3 3 2 2 2 5 7 5 5 8 9 9 11 14 15 15 15 15 15 14 18 17 19 19 20 17 15 15 13 9 8 8 7 7 7 7 8 8 7 6 6 6 6
9 4 2 1 1 1 1 1 1 2 6 10 10 6 2 2 3 2 2 1 1 3 3 2 4 2 1 1 3 1 1 1 2 2 1 1 1 2 1 0 2 2 1 2 3 0 0 2 3 5 5 6 7 9 9 9 10 12 13 14 14 14 13 14 14 14 15 14 15 17 16 17 15 13 11 9 6 6 6 5 5 5 6 6 7 8 8
4 1 2 2 0 0 0 2 2 3 4 3 1 1 1 1 1 2 1 1 1 2 2 2 4 1 2 3 4 2 1 2 2 1 1 1 1 1 1 1 1 1 1 0 2 3 2 3 2 4 8 9 9 12 9 8 8 9 12 13 14 14 13 11 14 14 14 12 13 15 14 13 14 14 13 12 10 7 5 6 5 4 3 4 5 6 7
1 0 1 0 0 1 2 2 2 2 1 3 1 1 0 1 1 1 1 1 1 2 2 3 2 3 4 4 5 3 3 1 3 2 2 1 1 1 1 1 1 1 1 1 2 1 1 4 2 4 8 8 8 10 8 8 9 8 10 13 14 14 15 13 13 12 13 14 15 15 16 18 18 15 13 13 12 12 11 12 11 10 8 6 5 4 5
1 2 1 0 2 3 3 2 1 1 2 2 2 1 1 0 1 1 1 1 1 2 2 2 1 3 3 3 3 4 1 1 1 1 0 2 1 1 2 1 1 1 1 0 1 1 1 2 4 7 7 7 7 9 9 9 8 8 8 9 12 12 14 14 13 13 14 14 15 15 16 17 17 17 16 17 14 11 11 11 11 11 12 10 9 7 6
1 1 2 4 3 3 2 1 2 2 2 1 1 1 0 2 1 0 0 1 3 2 1 2 3 4 5 2 2 2 1 1 1 0 1 1 3 2 1 1 1 0 1 1 1 2 2 3 4 6 6 7 7 7 7 8 8 9 9 9 9 11 13 13 13 12 12 12 12 14 16 18 18 17 16 16 16 14 12 13 15 14 12 9 9 9 9
4 4 2 2 1 1 2 0 1 1 1 2 3 1 2 2 1 2 3 2 0 1 1 1 3 3 3 1 1 4 2 1 2 1 2 1 1 1 1 1 1 1 2 1 1 2 3 4 4 6 6 7 8 7 7 6 6 6 7 7 7 8 11 12 12 12 11 11 12 12 13 16 17 16 17 17 18 18 15 14 14 12 12 12 12 12 11
3 1 1 0 0 1 1 1 1 1 1 1 1 1 2 3 3 1 4 4 1 3 0 5 6 5 5 1 2 0 2 2 1 1 2 1 1 1 1 1 2 2 1 2 2 3 2 2 3 5 6 7 6 7 7 6 6 5 5 6 7 9 10 10 11 12 12 11 10 11 11 15 17 17 19 18 18 18 15 14 13 13 14 14 14 13 12
2 1 1 0 0 1 0 1 2 2 1 1 1 1 0 5 7 2 4 3 1 7 4 2 3 3 6 3 2 1 1 1 1 1 2 1 1 1 1 2 1 1 1 2 2 3 1 3 4 5 8 8 8 8 8 7 6 5 5 6 8 8 9 10 10 10 9 10 12 11 12 13 15 16 16 17 16 14 14 14 14 12 11 13 14 14 13
1 0 0 2 3 2 1 0 1 1 0 2 1 1 3 4 3 6 3 0 4 6 8 8 5 3 5 2 2 2 1 1 2 1 2 1 1 2 2 1 0 2 2 1 1 2 1 2 5 6 8 8 7 7 7 7 6 6 6 7 8 9 9 9 10 10 9 10 10 11 11 11 13 14 14 13 15 16 15 14 13 14 13 12 12 13 13
1 1 1 1 1 0 0 1 1 1 1 1 2 2 3 5 4 6 5 2 6 6 7 5 3 3 3 2 1 1 2 2 2 2 2 1 2 1 0 1 2 2 3 4 2 1 2 4 5 6 6 7 8 7 6 6 6 7 7 6 7 8 9 8 8 10 10 10 10 11 11 11 12 12 11 12 12 14 16 14 13 14 14 14 13 12 12
1 0 0 1 1 0 0 0 1 2 3 3 2 1 2 1 3 4 2 2 4 5 5 5 2 1 2 1 1 2 2 3 1 3 3 2 1 2 2 2 3 3 3 3 4 1 2 3 4 5 5 5 6 6 5 5 7 7 7 6 7 7 7 7 7 7 8 8 9 9 10 11 10 11 11 11 11 12 13 14 13 13 14 14 13 14 14
2 1 0 1 1 1 2 1 1 4 2 1 1 2 1 2 3 4 4 2 3 4 2 2 2 2 2 3 2 2 2 4 2 2 2 3 3 3 3 3 3 2 2 2 4 2 3 4 4 4 4 5 5 5 5 4 5 7 6 5 5 5 5 6 6 6 6 6 6 6 7 9 10 9 9 9 10 10 11 12 13 12 13 14 14 14 14
0 0 2 1 1 2 1 1 1 3 2 1 1 1 0 1 3 2 1 3 3 2 1 2 0 2 2 2 1 1 1 2 2 0 2 4 4 2 2 2 2 3 6 4 3 3 3 4 3 4 4 5 5 5 6 6 6 6 6 7 5 4 5 6 6 7 6 6 5 5 6 6 8 9 10 10 9 7 9 11 12 12 12 12 14 14 14
1 0 1 0 2 1 3 2 2 2 2 1 1 2 2 2 2 2 1 1 4 3 3 4 2 2 1 2 2 1 2 1 1 4 2 3 2 2 2 3 5 5 5 4 3 3 3 3 3 2 3 4 4 4 5 5 5 4 4 5 6 6 5 7 7 6 6 6 6 5 5 5 5 7 8 8 9 8 8 10 11 11 12 12 12 13 13
0 0 1 0 1 1 2 1 1 4 5 3 2 1 2 2 2 3 1 1 1 4 5 2 1 2 1 2 2 2 3 1 1 1 2 2 1 2 3 3 5 5 5 5 4 3 3 2 1 1 2 3 4 5 5 4 3 4 5 5 6 7 7 7 6 6 6 6 6 4 3 3 4 5 6 8 9 9 9 8 8 10 10 9 10 11 12
Wind_Direction
346 341 334 336 339 340 338 335 333 341 353 360 354 320 350 20 347 312 312 338 329 67 75 54 47 52 25 290 216 295 54 28 12 25 12 39 9 42 46 25 315 69 348 112 282 330 257 201 248 357 284 284 337 36 356 337 336 328 346 315 3 305 254 266 271 290 269 265 303 110 84 154 148 132 26 359 42 10 334 332 353 291 214 204 228 240 254
346 339 337 335 338 340 338 334 333 341 9 3 339 8 26 310 307 319 329 339 335 64 61 44 38 50 6 33 61 34 60 36 31 40 28 21 12 30 31 112 28 21 358 334 283 9 285 146 236 220 221 304 153 207 278 349 344 349 15 332 1 309 138 298 301 240 223 206 132 127 72 81 68 22 18 22 345 322 303 267 263 252 231 231 218 245 224
344 337 336 337 340 341 337 334 331 341 354 0 356 358 330 293 238 248 329 3 36 71 29 46 41 44 18 20 44 18 70 31 30 30 48 17 20 329 67 25 7 35 347 337 10 51 353 309 215 310 267 290 115 237 313 326 335 320 344 349 337 278 303 323 255 215 191 194 203 201 164 358 336 243 295 333 339 350 346 217 189 245 214 227 238 246 221
344 339 337 336 345 341 337 334 335 337 346 345 348 338 293 8 8 351 359 26 56 78 65 53 31 52 21 65 42 17 49 55 26 11 80 21 24 45 40 32 23 28 358 6 4 286 26 322 330 307 265 266 226 240 254 299 316 311 328 345 329 284 278 246 258 277 279 5 33 287 255 317 291 306 309 314 341 332 303 276 271 239 348 251 244 277 276
342 337 341 335 346 343 338 336 338 336 341 358 345 328 25 303 54 343 353 315 71 80 53 34 23 37 352 61 14 38 25 343 86 8 82 19 11 65 55 40 39 13 1 21 318 351 319 342 297 258 263 254 319 358 279 283 285 310 323 348 310 264 265 247 259 262 264 291 309 327 305 285 288 298 299 307 304 294 257 231 232 19 340 262 236 255 266
342 341 342 342 345 341 337 335 341 333 339 351 277 349 336 70 85 31 346 337 1 2 31 14 0 13 256 85 3 39 21 29 29 0 51 355 36 10 164 49 51 30 8 323 291 320 318 294 271 345 247 313 330 318 305 272 293 273 305 338 320 295 266 285 278 267 273 275 282 287 280 260 266 278 284 292 296 276 253 250 253 262 248 265 326 312 288
341 343 341 343 347 341 335 335 340 338 334 348 335 44 31 53 106 82 291 89 55 2 333 342 350 350 80 105 44 54 28 38 16 329 328 5 66 23 17 14 4 2 347 291 282 297 298 221 335 298 308 298 327 303 311 267 235 228 291 337 334 286 266 272 280 283 277 270 266 256 258 269 271 267 273 274 281 278 266 267 264 250 246 245 256 279 282
341 340 342 343 344 340 331 331 339 340 337 330 27 36 22 45 30 42 4 54 334 316 350 351 355 57 9 115 39 30 20 15 360 347 268 69 80 16 24 351 346 336 326 232 249 265 291 299 284 298 303 294 267 284 273 284 197 258 284 317 16 284 308 350 328 298 280 271 252 241 242 264 273 270 269 274 272 271 265 266 271 277 258 244 251 260 270
341 340 339 342 341 336 332 330 346 342 343 15 27 54 32 34 29 337 350 42 42 67 1 7 12 49 51 47 25 351 21 10 351 307 244 232 37 8 345 343 325 317 284 243 250 265 271 276 266 276 276 275 279 274 252 223 279 261 278 284 272 258 287 321 307 297 284 272 246 231 240 253 268 272 269 265 260 250 226 237 337 322 296 285 251 245 255
341 338 340 337 339 331 332 336 352 4 335 40 334 49 42 93 45 334 318 32 25 16 4 353 305 60 35 344 355 333 340 344 337 336 153 254 250 305 316 326 317 290 284 284 286 312 294 283 281 273 266 257 260 249 253 256 262 271 263 263 268 251 288 303 311 274 271 272 269 271 271 273 265 256 246 241 239 236 204 180 336 12 325 264 240 251 6
338 334 341 337 332 337 335 336 350 33 343 54 17 350 2 40 63 54 284 22 40 24 0 34 10 42 311 352 321 305 293 319 347 333 343 327 315 94 312 304 298 290 278 306 329 308 292 282 275 268 258 253 253 250 247 247 245 246 251 250 244 241 244 265 261 264 274 323 297 258 241 232 233 45 41 177 213 190 187 137 26 21 12 322 311 311 327
335 336 338 337 327 332 332 333 334 59 174 92 233 283 256 102 72 45 307 30 16 360 350 344 338 322 308 303 300 299 294 301 300 289 289 288 290 298 291 276 228 272 119 312 313 309 292 267 254 254 248 251 252 250 247 247 243 234 233 237 238 226 227 255 239 256 271 309 308 251 231 229 84 353 14 354 204 12 284 123 65 27 13 4 348 340 338
334 336 337 335 327 328 328 330 321 304 205 234 203 268 269 186 72 151 110 25 320 344 340 340 322 292 290 289 288 274 272 277 274 273 266 272 283 291 277 282 259 272 316 314 316 307 302 304 292 279 270 253 244 244 247 247 250 243 236 227 231 234 230 244 243 245 269 281 244 234 227 82 353 122 73 4 280 332 270 137 57 33 22 4 345 335 335
335 336 334 331 329 325 327 329 322 317 273 193 214 231 193 163 163 139 165 42 317 309 301 308 306 23 44 263 277 293 290 284 293 259 267 225 279 286 290 251 261 299 305 311 294 289 291 300 316 306 293 254 185 199 203 239 239 239 231 223 220 224 224 226 247 217 241 243 242 245 341 327 125 127 43 6 354 332 329 214 74 31 23 9 344 336 343
335 335 332 329 331 327 329 334 333 325 320 173 227 241 231 201 200 144 168 326 290 305 256 265 9 330 323 311 322 313 304 313 316 293 270 274 267 257 258 281 296 297 306 294 292 289 309 294 297 327 304 335 349 340 319 288 291 286 273 239 218 208 215 200 221 229 229 253 271 270 247 228 150 104 53 307 315 303 284 274 150 30 15 3 353 348 350
335 333 329 333 332 335 334 354 354 329 325 162 216 227 235 204 164 208 152 178 283 315 228 232 252 274 291 289 288 287 296 311 315 309 308 277 261 283 271 288 296 297 278 223 252 296 301 303 315 313 326 327 322 288 284 338 311 137 34 310 245 213 212 205 210 230 214 227 243 250 228 180 93 100 333 326 315 297 282 236 193 22 3 354 357 352 351
333 329 330 329 337 336 343 355 352 340 155 162 226 208 250 188 175 168 147 172 189 248 290 179 181 214 281 289 245 247 242 262 316 319 314 314 319 308 303 315 303 272 341 282 281 280 276 290 284 286 293 276 289 329 302 290 325 277 166 125 270 219 202 200 217 229 226 236 238 241 253 248 66 346 341 332 322 293 236 220 182 5 10 348 355 353 344
331 329 336 334 337 338 341 346 352 359 301 192 218 221 235 182 192 160 195 192 225 279 253 238 202 218 228 220 268 262 223 249 240 255 259 290 300 305 324 338 337 106 356 309 354 301 288 273 305 331 319 31 307 290 316 344 303 323 320 319 261 214 206 201 213 215 224 232 254 270 280 302 351 341 334 331 327 286 211 208 62 1 7 347 348 347 342
332 334 335 339 336 334 334 339 340 338 26 175 206 283 256 214 189 189 154 186 202 261 230 189 218 239 243 221 243 244 249 278 289 287 289 295 293 316 309 344 3 291 27 348 317 277 289 292 131 301 301 271 250 311 342 307 315 314 277 305 259 219 206 202 209 215 217 230 247 249 270 349 350 343 344 358 308 215 196 61 8 17 357 345 342 340 345
333 335 336 331 328 328 330 333 335 336 127 151 195 236 307 206 199 196 196 226 222 263 277 263 230 244 227 233 252 253 249 239 215 232 240 263 334 321 317 238 106 267 276 141 242 179 278 297 12 344 246 282 283 319 286 278 211 255 271 244 254 200 191 193 191 188 216 223 246 248 248 50 359 343 54 18 312 46 30 23 42 14 9 342 340 337 339
335 332 332 327 324 321 327 330 330 317 290 167 190 242 283 217 210 216 233 253 267 294 300 129 248 248 256 260 262 262 263 262 255 244 237 251 301 343 271 278 51 1 316 324 269 222 241 286 179 264 323 292 316 286 303 320 268 198 203 269 293 326 203 183 185 185 181 210 219 226 4 16 5 37 60 16 12 28 33 20 3 359 12 356 329 330 326
333 332 328 323 320 318 320 322 307 116 173 167 169 195 264 231 220 221 226 226 240 248 269 308 299 282 266 258 258 253 254 255 254 241 261 272 213 216 252 284 283 214 248 258 256 222 204 254 320 244 264 275 256 258 313 311 297 130 210 263 299 26 3 9 158 84 215 231 238 5 323 65 47 64 103 107 55 42 34 22 2 345 9 347 317 326 326
327 325 322 318 316 314 315 315 309 204 205 183 172 217 236 228 232 191 199 235 237 252 268 276 285 274 262 253 242 242 241 241 256 238 210 236 265 224 238 253 274 231 231 178 219 306 326 283 246 301 286 267 289 312 284 226 284 327 321 79 267 292 306 306 275 263 282 278 271 275 309 59 107 93 106 112 104 77 54 26 357 343 335 332 333 326 323
323 319 318 315 315 317 311 307 296 204 208 204 187 196 220 229 218 151 238 252 288 309 283 224 308 2 356 339 331 219 212 224 224 230 196 195 242 261 187 199 129 316 279 304 41 275 308 279 278 240 259 259 262 268 287 278 265 354 309 320 268 300 291 325 247 320 323 222 166 317 329 324 176 136 146 118 113 76 38 37 13 340 321 334 332 330 323
320 319 317 315 311 310 308 312 247 190 196 220 203 210 221 230 218 178 214 279 338 323 319 313 255 281 313 306 287 278 222 228 199 194 180 196 220 244 260 71 220 210 214 156 98 328 313 271 253 228 245 19 347 276 192 269 248 43 320 312 330 311 7 312 332 323 256 293 327 329 322 297 151 84 39 11 25 355 351 331 355 11 342 317 319 332 325
319 318 316 312 310 298 277 271 212 189 206 224 211 203 211 227 147 162 226 277 286 285 308 307 278 50 320 331 12 339 314 283 198 183 188 197 211 227 260 290 257 146 57 175 169 214 245 238 257 268 286 249 27 291 297 323 303 307 273 294 291 298 307 301 329 298 281 283 275 342 315 153 149 139 69 24 10 344 334 322 325 346 346 329 325 329 326
316 314 312 306 296 286 257 225 188 189 198 209 217 209 220 221 159 190 180 185 235 276 226 269 298 302 354 333 321 323 343 7 166 185 197 212 229 240 241 256 283 300 275 286 100 58 64 337 258 300 272 282 329 292 287 284 283 304 298 323 345 326 324 327 315 306 300 294 30 13 347 275 221 265 303 323 302 284 298 311 290 311 311 333 326 320 317
316 313 309 301 290 273 246 208 200 175 186 182 186 214 228 230 219 211 237 278 252 266 307 292 303 306 310 244 309 354 14 57 163 199 213 222 232 235 260 300 335 351 345 359 34 27 19 353 349 299 276 300 297 278 263 259 276 271 251 342 347 324 312 316 302 293 287 306 305 304 285 273 269 273 284 290 272 272 286 289 284 271 255 311 319 309 317
315 312 306 298 288 255 227 214 207 196 166 148 158 186 250 239 240 228 220 216 264 264 252 275 277 278 354 348 330 359 55 65 99 177 228 229 201 197 222 279 312 339 341 45 74 48 38 27 3 7 351 336 311 307 336 339 343 339 0 338 331 312 302 295 292 289 279 279 284 287 277 270 279 284 285 282 272 276 280 282 276 267 256 261 288 294 307
313 308 297 267 257 250 213 195 182 162 146 148 157 200 234 179 192 213 201 198 196 226 289 331 320 305 336 266 274 181 147 81 70 82 83 94 115 146 199 192 328 80 18 46 319 41 23 53 22 313 338 335 306 312 307 323 307 314 340 333 318 306 308 310 302 287 284 293 291 285 281 277 271 269 270 270 269 264 265 266 263 257 250 233 243 263 281
308 306 289 261 238 219 197 192 186 164 156 175 188 199 185 332 150 188 178 189 185 218 294 217 260 319 312 329 296 289 259 220 141 63 55 50 67 83 105 103 68 344 343 5 337 30 324 27 345 357 60 30 12 328 309 314 302 302 335 330 319 318 324 324 314 294 281 275 273 273 273 269 265 272 270 264 261 255 253 259 262 260 252 237 236 230 256
304 289 276 256 224 194 187 184 185 177 187 191 204 1 22 15 55 147 165 172 170 215 247 302 312 308 310 277 264 309 305 317 338 297 210 331 344 30 55 17 43 18 12 4 358 271 49 269 323 322 333 353 12 301 297 298 322 331 328 330 327 327 329 340 339 326 297 279 286 291 282 274 261 252 269 274 270 263 253 254 259 252 252 247 230 222 231
302 290 260 228 193 178 168 170 177 185 201 269 306 280 260 234 121 138 154 151 174 204 82 151 139 277 274 294 340 246 181 262 245 58 17 86 327 6 342 32 8 5 337 304 12 5 338 326 283 330 3 25 352 344 306 328 347 338 334 329 331 335 342 355 351 352 3 2 300 283 292 295 297 298 290 286 282 279 275 269 265 254 239 235 225 223 234
321 308 208 170 159 161 162 164 162 157 349 291 268 150 35 173 157 157 154 162 103 84 85 109 322 275 265 55 294 169 199 253 189 71 214 113 99 196 276 359 30 18 19 7 326 289 280 247 360 309 245 16 66 327 1 347 350 349 345 344 350 352 353 360 7 2 6 17 9 343 318 300 292 282 284 285 283 282 277 274 274 273 250 220 217 224 230
0 106 125 130 129 128 129 137 141 189 221 255 263 327 71 145 153 161 170 189 164 250 289 228 215 299 319 288 250 160 162 204 222 151 220 288 199 193 166 231 239 268 100 214 342 5 353 18 297 349 6 299 348 13 9 341 351 354 356 357 358 355 360 11 8 1 5 12 14 10 1 355 346 345 328 311 302 297 286 276 272 270 272 256 237 218 210
98 110 116 119 120 126 123 141 147 154 212 213 82 118 129 131 141 150 223 146 280 219 233 281 234 262 264 306 318 98 174 249 123 129 159 230 196 201 234 220 142 77 329 110 41 344 23 335 317 17 323 14 27 359 346 348 355 360 2 3 0 2 1 357 355 357 4 14 17 13 8 6 8 1 335 315 309 301 291 286 282 286 278 275 273 276 244
111 116 116 116 126 171 110 98 126 230 346 83 130 128 120 117 87 238 305 273 96 326 243 281 272 247 213 298 291 267 311 323 166 175 168 211 122 153 191 201 73 129 188 110 61 29 350 312 57 36 13 13 8 350 343 343 2 6 7 2 2 358 1 358 354 356 10 16 14 10 9 13 11 8 8 351 323 309 303 296 290 286 290 292 291 284 292
120 106 151 159 169 71 112 120 86 72 119 126 141 135 139 228 164 177 209 245 183 181 202 214 255 284 51 265 298 91 251 261 51 349 115 138 193 143 195 45 99 211 95 47 55 104 159 39 40 37 30 4 6 6 353 345 355 7 10 8 2 360 356 358 356 355 2 6 12 9 4 10 16 14 6 17 356 314 305 308 311 297 286 288 290 300 305
95 107 70 48 45 126 73 93 81 105 123 130 274 253 153 110 157 220 260 248 244 227 170 218 268 231 222 263 273 163 290 328 327 358 348 95 268 112 232 205 121 35 116 164 122 222 116 74 49 33 26 353 3 4 354 341 340 354 3 7 6 1 357 356 3 2 1 5 6 11 8 7 4 14 20 17 13 5 337 323 324 319 276 253 266 281 289
188 103 85 142 66 71 92 90 46 140 210 238 172 254 123 170 294 356 128 259 219 185 169 266 218 232 221 269 303 309 153 251 336 324 340 337 135 310 93 213 147 191 86 10 48 295 19 54 35 21 24 355 1 354 4 354 352 348 356 3 6 3 3 357 360 357 1 7 12 14 16 20 22 19 16 25 28 22 15 10 8 11 15 16 19 11 357
124 125 158 92 121 133 139 149 179 196 206 220 205 186 40 18 91 317 288 280 279 274 183 280 267 265 211 225 213 272 86 229 84 32 106 288 66 267 179 73 129 112 98 350 130 109 95 77 43 31 9 346 352 352 1 3 351 347 358 1 5 8 9 4 1 1 1 7 14 17 18 19 24 25 24 23 23 25 25 20 11 6 14 22 21 13 4
164 358 70 95 109 109 135 157 187 216 201 230 83 355 288 263 259 192 124 333 353 326 262 203 294 325 307 221 249 268 268 85 126 258 288 263 156 246 28 110 204 301 66 32 357 62 31 55 34 23 353 349 347 355 8 8 356 348 354 4 2 6 14 15 10 6 3 0 3 15 20 26 28 28 29 30 28 23 20 23 21 14 15 15 19 17 10
82 81 87 104 146 164 200 229 171 150 61 355 30 358 8 7 22 327 317 264 86 257 285 171 247 271 242 109 223 206 264 107 240 139 247 357 104 239 192 86 328 46 78 170 121 76 50 48 25 9 345 344 342 354 2 4 358 346 348 356 2 8 16 19 16 11 5 3 8 13 16 25 28 28 31 33 32 28 20 18 25 23 13 17 25 26 20
87 85 139 338 77 191 188 18 277 273 44 92 75 341 331 320 330 333 298 315 321 270 234 321 334 1 321 131 301 302 190 178 166 173 215 212 255 33 79 84 39 64 153 94 73 67 76 95 8 345 340 339 346 348 351 351 358 352 359 2 1 6 13 18 18 20 18 18 14 11 12 23 28 29 29 29 29 28 23 21 10 15 27 30 32 30 27
147 63 21 330 13 278 52 326 334 92 16 346 188 246 272 318 320 298 306 352 159 299 313 253 288 288 285 304 231 220 262 334 139 298 354 325 197 83 347 61 64 156 105 79 82 98 96 36 359 352 351 347 341 337 337 338 344 350 352 17 20 9 10 15 19 19 18 19 20 17 17 18 24 26 26 26 25 23 22 19 10 7 11 28 36 32 26
145 213 88 52 334 329 75 204 9 22 199 185 264 264 266 274 270 287 297 157 285 296 310 317 317 280 271 266 300 6 342 300 254 47 356 288 295 59 58 126 88 65 68 73 62 61 68 335 342 348 339 335 334 334 331 328 339 350 359 11 6 10 11 12 13 18 20 20 22 24 24 21 22 21 21 18 22 23 22 17 13 15 17 24 25 28 26
91 44 77 113 100 293 59 358 287 247 333 212 228 224 249 284 288 276 280 280 278 303 302 294 273 282 310 21 301 175 33 346 348 31 294 350 25 71 155 312 38 26 23 1 10 11 350 342 328 330 334 334 332 333 332 332 343 354 358 4 7 4 3 5 7 11 15 18 21 24 25 24 24 24 22 20 19 23 22 15 9 12 21 26 26 24 29
258 283 99 57 267 225 342 227 305 275 210 232 254 220 280 296 296 307 305 234 282 299 300 311 301 221 208 157 255 14 12 350 336 67 10 357 290 21 14 54 49 39 64 356 338 304 299 303 314 316 326 332 323 325 337 346 348 353 1 4 8 6 2 2 4 5 9 14 18 21 23 24 24 26 28 25 22 21 23 22 19 15 18 20 26 30 33
119 117 130 182 183 171 215 133 329 313 312 218 251 254 248 272 295 288 310 302 300 305 306 295 335 296 354 13 5 15 31 1 347 9 337 31 41 29 343 3 6 358 37 13 335 334 324 334 338 332 333 340 339 336 335 350 1 355 353 353 2 357 2 2 6 7 5 9 15 23 23 25 26 26 27 29 28 19 19 24 23 23 21 20 23 29 33
67 300 70 109 246 213 124 183 261 282 295 314 260 224 149 248 273 291 348 317 337 326 288 189 1 346 6 329 20 18 47 12 30 309 33 42 23 8 354 3 14 335 334 355 328 331 333 344 356 357 354 350 344 343 339 349 6 5 359 341 352 5 5 4 13 17 12 3 3 23 32 30 29 31 33 36 34 18 18 25 27 25 24 24 26 28 32
36 132 282 240 269 221 163 283 296 284 279 263 221 249 173 269 275 308 88 316 329 349 35 12 343 346 350 24 8 13 32 324 2 34 20 28 11 357 20 344 347 337 321 335 339 324 338 354 352 352 352 340 332 335 344 350 10 26 15 356 358 0 7 18 21 20 21 19 11 16 33 38 40 42 39 37 38 30 27 29 29 30 30 29 29 31 33
60 302 229 196 228 241 196 54 175 236 260 258 214 196 165 257 240 279 6 279 65 11 7 354 328 358 28 20 11 312 286 278 54 357 32 55 311 6 359 344 329 333 328 324 328 339 339 351 1 350 331 320 328 331 342 350 22 29 24 29 23 5 1 11 14 15 20 24 26 22 30 50 55 55 44 38 39 44 41 34 23 27 32 28 29 32 35